Flag for U.S.A. Weather past 2 weeks in Jersey City, New Jersey, U.S.A.

Now
84 °F

Partly cloudy.


Feels Like: 86 °F
Forecast: 75 / 88 °F
Wind: 13 mph from Southwest

Location: Newark International Airport

Current Time: Aug 31, 2015 at 10:43:00 PM

Latest Report: Aug 31, 2015 at 9:51 PM


Visibility: 10 mi

Pressure: 29.98 "Hg

Humidity: 55%

Dew point: 66 °F

Location of Jersey CityLocation

Historic Weather in Jersey City — Graph

°F

Jersey City temperature yesterday

Maximum temperature yesterday: 91 °F (at 1:51 PM)
Minimum temperature yesterday: 68 °F (at 5:51 AM)
Average temperature yesterday: 80 °F

Past Weeks' High & Low Weather Summary

 TemperatureHumidityPressure
High97 °F (Aug 17, 4:51 PM)94% (Aug 21, 3:02 AM)30.22 "Hg (Aug 21, 3:02 AM)
Low63 °F (Aug 28, 5:51 AM)27% (Aug 17, 4:51 PM)29.80 "Hg (Aug 25, 3:51 PM)
Average79 °F59%30.01 "Hg
* Reported Aug 16 8:51 PM — Aug 31 8:51 PM, Jersey City, Weather by CustomWeather, © 2015

Note: Actual official high and low records may vary slightly from our data, if they occured in-between our weather recording intervals... More about our weather records

Advertising

Jersey City weather history for previous 24 hours

 ConditionsComfort  
Time TempWeatherWind HumidityBarometerVisibility
8:51 PM
Mon, Aug 31
87 °FPassing clouds.9 mph48%29.96 "Hg10 mi
7:51 PM88 °FPartly sunny.8 mph45%29.95 "Hg10 mi
6:51 PM90 °FPartly sunny.12 mph41%29.94 "Hg10 mi
5:51 PM92 °FBroken clouds.14 mph38%29.95 "Hg10 mi
4:51 PM93 °FBroken clouds.15 mph37%29.94 "Hg10 mi
3:51 PM92 °FBroken clouds.13 mph38%29.95 "Hg10 mi
2:51 PM92 °FBroken clouds.14 mph38%29.96 "Hg10 mi
1:51 PM92 °FBroken clouds.10 mph41%29.99 "Hg10 mi
12:51 PM87 °FMostly cloudy.8 mph51%30.02 "Hg10 mi
11:51 AM85 °FMore clouds than sun.5 mph55%30.03 "Hg10 mi
10:51 AM83 °FMostly cloudy.3 mph61%30.03 "Hg10 mi
9:51 AM81 °FMore clouds than sun.5 mph65%30.03 "Hg10 mi
8:51 AM79 °FMore clouds than sun.6 mph69%30.03 "Hg10 mi
7:51 AM76 °FPartly sunny.7 mph77%30.04 "Hg10 mi
6:51 AM75 °FPassing clouds.7 mph79%30.03 "Hg10 mi
5:51 AM76 °FPassing clouds.9 mph77%30.02 "Hg10 mi
4:51 AM76 °FPassing clouds.8 mph74%30.01 "Hg10 mi
3:51 AM77 °FPartly cloudy.9 mph71%30.01 "Hg10 mi
2:51 AM77 °FPartly cloudy.10 mph69%30.01 "Hg10 mi
1:51 AM79 °FPartly cloudy.9 mph65%30.02 "Hg10 mi
12:51 AM80 °FPartly cloudy.14 mph62%30.03 "Hg10 mi
11:51 PM
Sun, Aug 30
80 °FPassing clouds.8 mph62%30.03 "Hg10 mi
10:51 PM82 °FPartly cloudy.8 mph58%30.03 "Hg10 mi
Weather by CustomWeather, © 2015

See weather overviewHow to use our weather pages